Theta_e
343 344 346 344 342 342 342 343 343 343 343 343 343 342 342 343 343 344 345 344 344 344 343 343 343 342 339 337 334 336 334 333
337 338 339 340 340 339 339 340 341 341 342 341 339 340 339 340 339 340 340 336 335 335 335 337 339 339 339 338 337 336 332 330
337 335 335 338 339 338 336 335 334 335 335 335 332 331 331 331 332 333 333 330 330 330 329 328 329 330 334 334 338 338 335 333
338 337 337 339 337 331 328 328 326 325 326 327 328 327 328 328 325 326 327 327 326 325 325 325 325 325 325 326 328 327 333 334
330 330 329 330 329 327 325 322 322 321 321 324 324 324 323 321 320 319 319 321 321 321 320 321 322 322 323 324 324 324 324 324
327 326 325 324 324 321 319 317 316 316 317 319 319 319 317 316 315 315 315 315 314 316 315 316 317 319 320 319 320 320 321 323
323 324 322 320 318 317 316 314 314 314 315 317 318 315 312 312 312 312 311 312 311 311 311 311 311 312 313 314 315 316 317 319
317 315 317 317 315 314 313 312 312 311 311 310 310 310 309 309 309 309 309 310 309 310 309 308 309 309 309 310 310 311 312 312
312 313 314 313 312 311 309 307 306 306 306 308 308 307 307 307 307 307 308 308 308 308 308 307 307 307 307 307 308 308 308 309
313 314 310 308 305 305 305 305 305 305 305 306 307 307 306 305 305 305 306 306 307 306 306 305 305 305 305 306 307 307 307 308
309 307 304 303 303 303 303 303 303 303 304 303 304 305 305 303 302 303 304 304 304 304 304 304 303 302 304 305 305 306 307 308
305 303 302 302 302 301 301 301 301 301 299 301 302 303 303 302 302 302 303 302 302 302 301 302 303 301 303 301 303 306 306 305
303 302 302 301 299 298 298 298 299 300 299 299 300 300 302 301 301 301 301 300 300 300 300 300 300 301 299 299 302 304 304 301
303 302 301 301 299 297 298 298 299 299 298 298 300 300 300 302 301 300 300 299 299 298 298 297 298 299 296 296 295 298 300 301
302 301 301 300 300 300 299 299 299 297 297 297 298 301 301 300 300 299 299 299 297 297 297 297 295 297 298 297 293 291 295 299
299 300 300 300 301 299 298 297 296 295 295 297 300 301 300 300 299 298 297 297 297 296 298 297 296 295 297 300 298 297 294 291
298 301 300 300 300 299 297 295 295 296 297 299 299 299 298 298 298 297 297 297 296 296 296 296 296 295 295 295 295 296 296 294
300 301 299 299 298 298 298 297 298 299 298 297 296 295 294 294 295 295 294 294 293 293 295 294 294 294 295 295 295 294 294 294
300 300 297 297 298 299 299 296 294 295 294 292 290 290 289 289 290 289 289 289 290 290 290 290 290 291 292 293 294 294 296 296
299 298 298 297 296 295 296 294 292 292 289 288 287 287 287 287 287 287 287 288 288 287 287 287 287 289 287 287 289 289 291 293
Wind_Speed
7 9 13 19 17 12 11 12 10 10 8 9 7 8 7 6 6 6 7 9 11 11 10 9 8 8 8 8 7 6 4 3
5 5 4 6 11 19 14 13 11 10 11 10 11 12 15 14 11 10 12 13 14 15 16 14 10 9 8 8 8 7 5 5
6 6 5 7 10 13 15 16 16 14 12 13 8 6 8 12 15 15 12 12 12 13 14 14 13 12 10 11 13 5 4 5
7 6 4 5 7 6 11 9 8 9 10 10 7 8 8 8 10 15 15 13 12 12 13 13 10 5 4 8 1 9 8 5
10 7 9 10 8 7 6 5 5 5 9 7 5 4 5 6 4 6 6 12 6 7 5 4 5 5 6 3 2 4 4 4
8 8 9 9 7 7 5 6 6 3 9 10 6 3 6 7 6 6 6 5 6 6 5 8 8 7 6 5 4 4 2 1
8 9 9 7 11 6 6 7 6 12 8 9 4 5 8 6 4 3 3 4 6 8 7 6 5 5 5 7 7 6 5 2
9 9 7 10 9 9 7 8 9 7 6 5 5 6 5 4 5 6 7 6 6 6 7 6 5 6 8 8 7 6 7 7
10 9 9 14 12 8 7 7 7 6 4 5 6 7 7 7 7 7 7 6 7 6 8 7 7 8 9 7 6 7 6 7
10 7 12 11 8 7 7 7 5 4 4 5 9 9 8 8 7 7 5 5 6 6 7 7 7 8 8 8 7 6 6 5
11 7 11 8 8 7 6 6 5 4 4 5 7 9 9 7 5 5 5 5 6 6 6 6 6 9 8 8 6 5 4 7
11 6 9 8 5 5 4 4 4 3 4 5 7 5 7 5 5 5 5 5 7 7 4 4 2 7 6 7 5 3 4 7
7 9 6 4 2 3 4 3 3 4 5 7 7 6 6 6 4 5 5 5 4 5 3 4 3 10 5 7 4 5 5 12
6 6 5 3 3 3 3 3 2 3 3 5 6 6 6 5 5 4 5 4 6 6 5 4 3 4 3 2 6 5 9 11
6 5 5 5 6 4 3 3 3 4 4 4 5 7 6 6 6 5 5 4 4 4 5 5 3 3 6 3 5 4 11 4
8 6 6 4 4 5 5 3 3 2 2 3 6 11 11 9 7 7 6 4 7 5 5 3 3 4 3 2 3 3 5 8
6 7 7 7 7 6 5 6 3 2 3 7 8 8 10 11 10 9 10 7 7 8 8 7 3 3 3 3 3 2 4 5
7 7 6 6 7 7 8 8 6 6 7 6 6 5 6 10 10 9 8 8 9 8 6 7 6 4 3 4 6 6 8 9
7 7 6 6 7 9 10 9 8 9 7 6 6 5 5 8 8 8 6 6 7 8 7 7 7 7 8 7 7 8 8 8
8 7 7 7 9 9 9 9 6 6 6 4 4 4 3 5 6 6 6 6 7 6 4 5 6 5 7 8 7 7 7 8
Wind_Direction
131 126 132 130 118 105 97 95 83 82 78 79 68 69 61 34 22 29 26 27 21 13 6 354 346 340 333 328 315 298 280 274
85 85 79 98 106 101 85 85 84 79 76 69 56 43 43 33 55 67 67 56 44 34 29 17 0 344 332 322 315 303 289 271
14 30 55 77 96 103 93 75 58 40 34 38 48 62 63 44 36 32 37 61 62 51 40 31 19 12 2 5 351 324 276 277
42 29 34 77 74 27 80 78 74 65 42 26 30 35 43 59 34 27 15 21 33 47 50 39 17 345 6 33 17 5 330 323
51 41 40 48 52 46 45 54 52 56 55 41 31 52 52 39 31 28 9 360 354 357 24 71 32 358 344 6 66 218 254 5
65 64 63 61 68 51 51 63 49 139 62 31 25 339 57 46 33 11 13 1 352 348 338 17 35 357 314 320 340 327 332 347
49 66 73 70 66 59 59 67 59 51 43 38 10 17 47 47 31 20 16 360 14 13 360 8 2 333 326 347 343 313 322 308
75 69 80 85 73 69 61 57 57 53 43 37 30 46 50 45 41 34 25 16 9 5 1 360 352 349 345 341 327 324 328 322
74 95 82 73 74 63 56 57 58 56 44 34 46 49 52 47 39 29 16 8 6 5 9 6 9 357 346 332 326 326 321 323
86 73 72 66 68 68 65 51 48 45 47 48 43 45 44 47 42 29 5 6 9 6 6 2 4 357 338 336 336 333 332 334
80 61 79 81 77 77 75 77 69 48 51 48 43 43 41 48 41 22 13 19 19 7 3 6 5 351 333 328 334 343 357 11
94 101 99 95 87 83 75 71 57 46 45 44 42 41 42 45 38 33 26 25 14 7 2 344 336 339 321 321 321 326 34 21
106 114 119 109 105 104 70 61 24 36 37 39 37 35 33 36 31 26 20 32 4 2 332 351 340 353 336 342 324 341 36 358
110 111 128 99 94 103 108 123 84 84 43 38 30 26 24 38 40 25 25 12 11 8 16 342 332 2 345 294 345 332 358 330
112 93 80 82 99 95 89 80 50 35 18 14 7 15 22 29 34 33 20 20 13 0 10 21 342 326 13 46 346 337 322 341
86 80 71 77 78 70 75 87 85 38 20 0 25 30 28 25 29 25 20 14 20 3 360 3 357 352 336 21 221 254 320 315
88 74 56 50 67 82 83 77 72 51 37 42 34 32 32 25 28 25 21 12 13 15 10 10 10 329 338 325 295 271 252 278
89 77 55 54 65 68 75 71 60 60 44 44 30 30 28 23 23 23 21 17 14 5 4 6 1 347 337 345 343 328 322 317
99 91 70 77 80 74 77 76 67 65 56 45 28 26 24 16 19 15 13 5 12 7 8 358 356 355 360 355 344 333 328 313
103 98 93 82 76 73 76 77 72 66 61 57 39 31 29 13 13 6 2 8 13 3 351 345 354 6 360 3 346 336 334 334